Orbital Elements at Epoch 2459200.5 (2020-Dec-17.0) TDB
Reference: JPL 16 (heliocentric ecliptic J2000)
Element | Value | Uncertainty (1-sigma) | Units |
e | .20929702827847 | 4.548e-08 | |
a | 2.408497221350495 | 9.9523e-09 | au |
q | 1.904405910304884 | 1.0674e-07 | au |
i | 4.965038154920063 | 4.4274e-06 | deg |
node | 114.1224168078311 | 6.8938e-05 | deg |
peri | 244.3459684329927 | 7.0335e-05 | deg |
M | 50.01713449205806 | 1.4147e-05 | deg |
tp | 2459010.814576876038 (2020-Jun-10.31457688) | 5.3185e-05 | TDB |
period | 1365.267183298339 3.74 | 8.4623e-06 2.317e-08 | d yr |
n | .2636846504508215 | 1.6344e-09 | deg/d |
Q | 2.912588532396107 | 1.2035e-08 | au |
|
| | Orbit Determination Parameters
Additional Information
|